Regional Weather Roundup
Issued by NWS Sioux Falls, SD

Home | Current Version | Previous Version | Text Only | Print | Product List | Glossary Off
Versions: 1 2 3 4 5 6 7 8 9 10 11 12 13 14 15 16 17 18 19 20 21 22 23 24 25 26 27 28 29 30 31 32 33 34 35 36 37 38 39 40 41 42 43 44 45 46 47 48 49 50

000
ASUS43 KFSD 010902
RWRFSD

WEATHER ROUNDUP FOR SE SOUTH DAKOTA/SW MINNESOTA/NW IOWA
NATIONAL WEATHER SERVICE SIOUX FALLS SD
400 AM CDT TUE SEP 01 2015

NOTE: "FAIR" INDICATES FEW OR NO CLOUDS BELOW 12,000 FEET WITH NO
SIGNIFICANT WEATHER AND OR OBSTRUCTIONS TO VISIBILITY.


SDZ038>040-050-052>070-011000-
SOUTHEAST SOUTH DAKOTA

CITY           SKY/WX    TMP DP  RH WIND       PRES   REMARKS
BROOKINGS      CLOUDY    70  66  88 SE5       29.91F
CHAMBERLAIN    CLOUDY    64  63  97 CALM      29.89F
HURON          CLOUDY    64  63  96 NW6       29.87S
MADISON        FAIR      68  68 100 SE3       29.90S
MITCHELL       CLOUDY    66  65  96 CALM      29.88S
SIOUX FALLS    MOCLDY    71  67  87 SE3       29.89F
WINNER         FAIR      65  60  84 NW6       29.90F
YANKTON        MOCLDY    66  64  94 E6        29.86F
$$

MNZ071-072-080-081-089-090-097-098-011000-
SOUTHWEST MINNESOTA

CITY           SKY/WX    TMP DP  RH WIND       PRES   REMARKS
FAIRMONT       PTCLDY    63  57  82 S6        29.93S
JACKSON        PTCLDY    66  64  94 S6        29.94S
LUVERNE        PTCLDY    64  63  94 CALM      29.92S FOG
MARSHALL       MOCLDY    72  64  78 CALM      29.90S
MONTEVIDEO     MOCLDY    68  64  88 CALM      29.89F
PIPESTONE      MOCLDY    70  66  88 S3        29.92S
REDWOOD FALLS  MOCLDY    68  66  93 CALM      29.89S
TRACY          PTCLDY    70  67  89 SW9       29.90R
WINDOM         PTCLDY    68  64  88 CALM      29.92F
WORTHINGTON    PTCLDY    66  63  88 S6        29.92F
$$

IAZ001>003-012>014-020>022-031-032-NEZ013-014-SDZ071-011000-
NORTHWEST IOWA

CITY           SKY/WX    TMP DP  RH WIND       PRES   REMARKS
ESTHERVILLE    PTCLDY    61  61 100 S6        29.93S
SIOUX CITY     CLEAR     67  64  90 E9        29.89F
SPENCER        PTCLDY    64  61  90 SE5       29.92F FOG
$$

ABBREVIATIONS USED IN REMARKS
   TC - TEMPERATURE IN CELSIUS
  WCI - WIND CHILL INDEX
   HX - HEAT INDEX
  VSB - VISIBILITY



USA.gov is the U.S. government's official web portal to all federal, state and local government web resources and services.